[[{"header":{"parameterUnit":"m.s-1","parameterCategory":1,"la1":30.2991,"la2":30.254,"lo1":-89.0895,"lo2":-89.0444,"dy":0.0017,"dx":0.0017,"nx":28,"ny":28,"refTime":"2025-12-01T03:00:00:Z","depth":0,"parameterNumber":2,"parameterNumberName":"U-component_of_WINDS"},"data":[0,0,0,0,0,0,0,0,0,0,0,0,0,0,0,0,0,0,0,0,0,0,0,0,0,0,0,0,0,0,0,0,0,0,0,0,0,0,0,0,0,0,0,0,0,0,0,0,0,0,0,0,0,0,0,0,0,0,-4.2078,-4.2079,0,-4.2119,-4.2119,-4.2119,-4.2003,-4.1999,-4.1995,-4.1992,-4.2038,-4.2043,-4.2047,0,0,0,0,0,0,0,0,0,0,0,0,0,-4.1905,-4.1909,-4.2078,-4.2079,-4.2079,-4.2118,-4.2119,-4.212,-4.2003,-4.1999,-4.1994,-4.199,-4.2037,-4.2042,-4.2048,0,0,0,0,0,0,0,0,0,0,0,0,0,-4.1967,-4.191,-4.2078,-4.2026,-4.2021,-4.2118,-4.2119,-4.212,-4.2004,-4.1999,-4.1993,-4.1988,-4.2035,-4.2041,-4.2048,-4.2199,0,0,-4.2069,-4.2072,0,0,0,0,0,0,0,0,-4.1963,-4.1973,-4.2033,-4.2029,-4.2025,-4.205,-4.2075,-4.2147,-4.2005,-4.2011,-4.1992,-4.1985,-4.2047,-4.2052,-4.2072,-4.2201,-4.2203,-4.207,-4.2074,-4.2077,-4.2079,0,0,0,0,0,0,0,-4.1959,-4.1971,-4.2094,-4.2034,-4.2029,-4.2002,-4.2005,-4.2088,-4.2059,-4.201,-4.2001,-4.2008,-4.2043,-4.2066,-4.2072,-4.2204,-4.207,-4.2076,-4.208,-4.2083,-4.2462,-4.2468,0,0,0,0,0,0,-4.1961,-4.1968,-4.2093,-4.2095,-4.198,-4.2009,-4.2012,-4.2047,-4.2058,-4.2054,-4.2012,-4.2002,-4.2056,-4.2064,-4.2073,-4.2252,-4.2077,-4.2084,-4.2087,-4.2456,-4.2464,-4.247,0,0,0,0,0,0,-4.1958,-4.1973,-4.2091,-4.2029,-4.2042,-4.2018,-4.2058,-4.2051,-4.2073,-4.2059,-4.2054,-4.204,-4.2052,-4.2064,-4.2169,-4.2252,-4.2087,-4.2093,-4.2449,-4.2459,-4.2467,-4.2611,0,0,0,0,0,0,-4.1953,-4.1973,-4.2029,-4.2031,-4.2046,-4.2185,-4.2063,-4.2056,-4.2084,-4.2072,-4.2084,-4.2081,-4.2049,-4.2159,-4.2176,-4.2259,-4.2098,-4.2442,-4.2453,-4.2464,-4.2599,-4.2624,-4.2645,0,0,0,0,0,-4.1947,-4.2068,-4.2032,-4.2048,-4.2115,-4.219,-4.2199,-4.2158,-4.2092,-4.2149,-4.214,-4.208,-4.224,-4.2171,-4.2189,-4.2275,-4.2436,-4.245,-4.2463,-4.2588,-4.2619,-4.2645,0,0,0,0,0,0,-4.2077,-4.2068,-4.2027,-4.2152,-4.2173,-4.217,-4.224,-4.2192,-4.2233,-4.2219,-4.2169,-4.2173,-4.2289,-4.2292,-4.2215,-4.2423,-4.2327,-4.2345,-4.2416,-4.2445,-4.2468,-4.2466,-4.2104,0,0,0,0,0,-4.212,-4.218,-4.2169,-4.228,-4.2293,-4.2265,-4.2296,-4.2264,-4.2284,-4.2292,-4.2291,-4.2314,-4.237,-4.2407,-4.2458,-4.2598,-4.2601,-4.2667,-4.269,-4.2709,-4.2725,-4.2802,-4.2832,-4.2514,-4.2514,-4.2513,0,0,-4.2209,-4.2212,-4.2253,-4.2306,-4.2318,-4.2384,-4.2273,-4.2346,-4.2395,-4.2304,-4.2403,-4.2404,-4.2426,-4.2551,-4.2605,-4.2557,-4.2814,-4.2726,-4.2741,-4.2747,-4.2819,-4.2849,-4.2876,-4.2523,-4.2521,-4.252,0,0,-4.2406,-4.2413,-4.2507,-4.2522,-4.2541,-4.2522,-4.2545,-4.255,-4.2547,-4.2645,-4.2579,-4.2637,-4.2733,-4.2752,-4.2775,-4.2981,-4.2928,-4.2999,-4.3121,-4.3197,-4.3222,-4.3244,-4.3319,-4.3347,-4.3015,-4.3015,-4.3015,0,-4.2515,-4.2609,-4.2562,-4.2641,-4.2667,-4.2586,-4.2683,-4.2699,-4.2735,-4.2756,-4.2701,-4.2821,-4.2831,-4.296,-4.301,-4.303,-4.3057,-4.2998,-4.3221,-4.3243,-4.3263,-4.3335,-4.3363,-4.3024,-4.3023,-4.3022,-4.3021,0,-4.2744,-4.281,-4.2884,-4.292,-4.2955,-4.3042,-4.301,-4.3051,-4.3016,-4.3004,-4.3107,-4.3116,-4.3167,-4.3195,-4.3162,-4.332,-4.329,-4.3229,-4.3132,-4.3303,-4.3369,-4.3396,-4.3036,-4.3033,-4.303,-4.3028,0,0,-4.3023,-4.3032,-4.306,-4.3076,-4.3092,-4.3143,-4.3228,-4.3277,-4.3315,-4.3342,-4.3413,-4.3497,-4.3442,-4.3467,-4.3436,-4.3502,-4.3668,-4.3433,-4.3433,-4.3478,-4.3846,-4.3892,-4.3925,-4.3632,-4.3637,-4.3641,-4.3844,0,-4.3218,-4.3361,-4.3322,-4.3466,-4.3528,-4.3453,-4.3527,-4.3546,-4.3538,-4.3591,-4.3581,-4.3642,-4.3563,-4.3578,-4.3641,-4.3634,-4.3741,-4.3619,-4.3701,-4.3704,-4.3699,-4.3959,-4.4008,-4.42,-4.387,-4.3874,-4.3877,0,-4.3465,-4.3501,-4.3651,-4.3659,-4.3683,-4.375,-4.3793,-4.3844,-4.3865,-4.3854,-4.3884,-4.3839,-4.3925,-4.3827,-4.3946,-4.3864,-4.3895,-4.3898,-4.3904,-4.3911,-4.3802,-4.3975,-4.4259,-4.4289,-4.3917,-4.3914,-4.3911,0,-4.3656,-4.3743,-4.3844,-4.386,-4.387,-4.3919,-4.3927,-4.3942,-4.3975,-4.4013,-4.4034,-4.4082,-4.4109,-4.4149,-4.412,-4.405,-4.4245,-4.4143,-4.424,-4.4241,-4.4285,-4.4283,-4.458,-4.4303,-4.4303,-4.4302,-4.4302,0,-4.3878,-4.3974,-4.393,-4.3993,-4.4098,-4.4053,-4.4159,-4.4158,-4.4173,-4.4235,-4.4173,-4.4234,-4.4191,-4.4249,-4.4226,-4.433,-4.4342,-4.4338,-4.4331,-4.4344,-4.4345,-4.4365,-4.4351,-4.431,-4.4308,-4.4307,-4.4305,0,-4.411,-4.4084,-4.419,-4.4191,-4.4194,-4.4272,-4.4274,-4.4333,-4.432,-4.44,-4.4417,-4.4397,-4.4462,-4.4436,-4.4506,-4.4491,-4.4624,-4.4599,-4.4616,-4.4611,-4.471,-4.4702,-4.5031,-4.5073,-4.4768,-4.4771,-4.4773,0,-4.4254,-4.4326,-4.4335,-4.4372,-4.4383,-4.4443,-4.4476,-4.4435,-4.4473,-4.4503,-4.456,-4.4619,-4.4664,-4.4772,-4.4765,-4.4818,-4.4795,-4.4907,-4.4803,-4.4815,-4.48,-4.4796,-4.4804,-4.4929,-4.4932,-4.4935,-4.4937,0,-4.4514,-4.4498,-4.4547,-4.4593,-4.4634,-4.4668,-4.4697,-4.4731,-4.4692,-4.4738,-4.4802,-4.4838,-4.4908,-4.4969,-4.5017,-4.5026,-4.4977,-4.497,-4.4996,-4.5011,-4.5019,-4.5018,-4.4675,-4.4963,-4.496,-4.4959,-4.4957,-4.4956,-4.4707,-4.4768,-4.4785,-4.4842,-4.4859,-4.4888,-4.4944,-4.4938,-4.4991,-4.5045,-4.5018,-4.5094,-4.5116,-4.5174,-4.5191,-4.5252,-4.5208,-4.5245,-4.5255,-4.5265,-4.5279,-4.5008,-4.526,-4.5259,-4.5259,-4.5258,-4.5258,0,-4.4966,-4.4973,-4.5026,-4.5068,-4.5114,-4.5061,-4.5091,-4.5134,-4.5201,-4.5225,-4.527,-4.5347,-4.5406,-4.5404,-4.5459,-4.5508,-4.5488,-4.5525,-4.5521,-4.5525,-4.5313,-4.5286,-4.5541,-4.5541,-4.5541,-4.5541,-4.554,-4.554,-4.5105,-4.5206,-4.5193,-4.5302,-4.5308,-4.5382,-4.5404,-4.5431,-4.5449,-4.5537,-4.5585,-4.5583,-4.5597,-4.5653,-4.5706,-4.5704,-4.5728,-4.5774,-4.5765,-4.5567,-4.5539,-4.5513,-4.5487,-4.578,-4.578,-4.5971,-4.5973,-4.5974]},{"header":{"parameterUnit":"m.s-1","parameterCategory":1,"la1":30.2991,"la2":30.254,"lo1":-89.0895,"lo2":-89.0444,"dy":0.0017,"dx":0.0017,"nx":28,"ny":28,"refTime":"2025-12-01T03:00:00:Z","depth":0,"parameterNumber":3,"parameterNumberName":"V-component_of_WINDS"},"data":[0,0,0,0,0,0,0,0,0,0,0,0,0,0,0,0,0,0,0,0,0,0,0,0,0,0,0,0,0,0,0,0,0,0,0,0,0,0,0,0,0,0,0,0,0,0,0,0,0,0,0,0,0,0,0,0,0,0,-0.9552,-0.9553,0,-0.9581,-0.9581,-0.9582,-0.9581,-0.9581,-0.958,-0.958,-0.961,-0.9611,-0.9612,0,0,0,0,0,0,0,0,0,0,0,0,0,-0.9496,-0.9497,-0.9552,-0.9553,-0.9553,-0.9581,-0.9581,-0.9582,-0.9581,-0.9581,-0.958,-0.958,-0.9609,-0.9611,-0.9612,0,0,0,0,0,0,0,0,0,0,0,0,0,-0.9522,-0.9497,-0.9552,-0.9556,-0.9557,-0.9581,-0.9582,-0.9582,-0.9581,-0.9581,-0.958,-0.958,-0.9609,-0.9611,-0.9612,-0.9635,0,0,-0.9618,-0.9618,0,0,0,0,0,0,0,0,-0.952,-0.9524,-0.9555,-0.9556,-0.9557,-0.9577,-0.9572,-0.96,-0.9582,-0.9572,-0.958,-0.9579,-0.9599,-0.9602,-0.9608,-0.9636,-0.9637,-0.9618,-0.9619,-0.9619,-0.962,0,0,0,0,0,0,0,-0.9519,-0.9523,-0.9564,-0.9556,-0.9557,-0.9556,-0.9559,-0.9577,-0.9589,-0.9573,-0.9573,-0.9576,-0.96,-0.9607,-0.9609,-0.9638,-0.9618,-0.9619,-0.962,-0.9621,-0.9683,-0.9684,0,0,0,0,0,0,-0.9516,-0.9521,-0.9563,-0.9565,-0.9537,-0.9557,-0.9561,-0.9571,-0.9588,-0.9591,-0.9577,-0.9576,-0.9604,-0.9607,-0.961,-0.9637,-0.9619,-0.9621,-0.9622,-0.9682,-0.9683,-0.9684,0,0,0,0,0,0,-0.9515,-0.952,-0.9562,-0.9543,-0.9548,-0.9559,-0.957,-0.9572,-0.9579,-0.9591,-0.9593,-0.9582,-0.9604,-0.9608,-0.9628,-0.9638,-0.9622,-0.9623,-0.9682,-0.9683,-0.9683,-0.969,0,0,0,0,0,0,-0.9513,-0.9519,-0.9529,-0.9543,-0.9549,-0.958,-0.9571,-0.9573,-0.9582,-0.9582,-0.9597,-0.9599,-0.9604,-0.9626,-0.963,-0.964,-0.9625,-0.9681,-0.9682,-0.9683,-0.9689,-0.9691,-0.9693,0,0,0,0,0,-0.9511,-0.953,-0.9529,-0.9534,-0.9561,-0.958,-0.9584,-0.9589,-0.9583,-0.9592,-0.9599,-0.9598,-0.9636,-0.9628,-0.9632,-0.9643,-0.968,-0.9682,-0.9683,-0.9688,-0.9691,-0.9693,0,0,0,0,0,0,-0.9517,-0.9532,-0.9531,-0.9555,-0.9566,-0.958,-0.9592,-0.9591,-0.9605,-0.9604,-0.9609,-0.9613,-0.9633,-0.964,-0.9631,-0.9665,-0.9657,-0.966,-0.966,-0.9662,-0.9664,-0.9662,-0.9626,0,0,0,0,0,-0.9521,-0.9535,-0.9548,-0.9567,-0.9573,-0.9581,-0.959,-0.9592,-0.9604,-0.9609,-0.9618,-0.963,-0.9644,-0.9653,-0.9667,-0.969,-0.9693,-0.9699,-0.9701,-0.9703,-0.9705,-0.9716,-0.9719,-0.9688,-0.9688,-0.9688,0,0,-0.9529,-0.9539,-0.9548,-0.9569,-0.9578,-0.9592,-0.9585,-0.9602,-0.9612,-0.9612,-0.9632,-0.9638,-0.9651,-0.9672,-0.9682,-0.9679,-0.9714,-0.9704,-0.9705,-0.9707,-0.9718,-0.9721,-0.9723,-0.9689,-0.9689,-0.9689,0,0,-0.9552,-0.9561,-0.9578,-0.9587,-0.96,-0.9605,-0.9609,-0.9623,-0.9627,-0.9646,-0.9646,-0.9658,-0.9683,-0.9692,-0.9699,-0.9723,-0.9722,-0.9727,-0.9737,-0.9748,-0.9751,-0.9753,-0.9761,-0.9763,-0.9729,-0.9729,-0.9729,0,-0.9562,-0.9584,-0.9587,-0.9603,-0.9611,-0.961,-0.9627,-0.9635,-0.9653,-0.9658,-0.9654,-0.9683,-0.9692,-0.9715,-0.972,-0.9727,-0.9731,-0.9726,-0.975,-0.9752,-0.9754,-0.9762,-0.9765,-0.9729,-0.9729,-0.9729,-0.9729,0,-0.9594,-0.9609,-0.9621,-0.9636,-0.9646,-0.9662,-0.9668,-0.9677,-0.9678,-0.9683,-0.9702,-0.9712,-0.9727,-0.9732,-0.9734,-0.9755,-0.9752,-0.9749,-0.9742,-0.9758,-0.9765,-0.9768,-0.973,-0.973,-0.973,-0.973,0,0,-0.9624,-0.9639,-0.9643,-0.965,-0.9663,-0.9675,-0.969,-0.9704,-0.9711,-0.9722,-0.9735,-0.9755,-0.9751,-0.976,-0.9762,-0.9771,-0.9788,-0.9766,-0.9767,-0.977,-0.9811,-0.9813,-0.9817,-0.9787,-0.9788,-0.9788,-0.9809,0,-0.9648,-0.9675,-0.9678,-0.9702,-0.9715,-0.9713,-0.9726,-0.9735,-0.974,-0.9751,-0.9756,-0.977,-0.9764,-0.9769,-0.9778,-0.9784,-0.9796,-0.9782,-0.9799,-0.9799,-0.9796,-0.9821,-0.9824,-0.9844,-0.9812,-0.9813,-0.9813,0,-0.9681,-0.9692,-0.9717,-0.9727,-0.9732,-0.9744,-0.9756,-0.9767,-0.9777,-0.9779,-0.9788,-0.9788,-0.9803,-0.9794,-0.9814,-0.9804,-0.9811,-0.9814,-0.9815,-0.9817,-0.9808,-0.9824,-0.985,-0.9853,-0.9818,-0.9817,-0.9817,0,-0.97,-0.9721,-0.9738,-0.9744,-0.9755,-0.9763,-0.9768,-0.9777,-0.9785,-0.9795,-0.98,-0.9812,-0.9819,-0.9828,-0.9831,-0.9824,-0.9851,-0.9842,-0.9853,-0.9853,-0.9859,-0.9859,-0.9888,-0.9863,-0.9863,-0.9863,-0.9863,0,-0.9727,-0.9743,-0.9746,-0.9757,-0.9774,-0.9776,-0.9792,-0.9797,-0.9804,-0.9816,-0.9814,-0.9825,-0.9828,-0.9839,-0.9841,-0.9857,-0.986,-0.9862,-0.9862,-0.9862,-0.9862,-0.9867,-0.9866,-0.9863,-0.9863,-0.9863,-0.9863,0,-0.9752,-0.9755,-0.9774,-0.9782,-0.9785,-0.9797,-0.9804,-0.9814,-0.9817,-0.9831,-0.9834,-0.9839,-0.9852,-0.9855,-0.987,-0.9872,-0.989,-0.9889,-0.9887,-0.9887,-0.9897,-0.9896,-0.9931,-0.9935,-0.9907,-0.9907,-0.9907,0,-0.9769,-0.9781,-0.979,-0.9797,-0.9802,-0.9814,-0.9821,-0.9823,-0.983,-0.9841,-0.9849,-0.9861,-0.9871,-0.9891,-0.9896,-0.9907,-0.9906,-0.9917,-0.9908,-0.9907,-0.9906,-0.9906,-0.9906,-0.9919,-0.992,-0.992,-0.992,0,-0.98,-0.9801,-0.9811,-0.9822,-0.983,-0.9838,-0.9847,-0.9852,-0.9855,-0.9863,-0.9875,-0.9883,-0.9897,-0.9909,-0.9919,-0.9924,-0.9923,-0.9923,-0.9926,-0.9926,-0.9924,-0.9925,-0.9892,-0.9922,-0.9922,-0.9922,-0.9922,-0.9922,-0.9822,-0.9832,-0.9839,-0.985,-0.9856,-0.9863,-0.9872,-0.9876,-0.9886,-0.9897,-0.9897,-0.991,-0.9917,-0.9932,-0.9937,-0.9947,-0.9943,-0.9948,-0.9949,-0.995,-0.9951,-0.9922,-0.9948,-0.9948,-0.9948,-0.9948,-0.9948,0,-0.9853,-0.9857,-0.9867,-0.9877,-0.9886,-0.9882,-0.989,-0.9897,-0.9909,-0.9915,-0.9924,-0.9937,-0.9948,-0.9953,-0.9963,-0.997,-0.9969,-0.9973,-0.9972,-0.9973,-0.9953,-0.995,-0.9973,-0.9973,-0.9973,-0.9973,-0.9973,-0.9973,-0.987,-0.9885,-0.9886,-0.9904,-0.9908,-0.992,-0.9925,-0.9931,-0.9936,-0.995,-0.9959,-0.9961,-0.9967,-0.9977,-0.9987,-0.9988,-0.9992,-0.9995,-0.9996,-0.9977,-0.9975,-0.9973,-0.9969,-0.9996,-0.9996,-1.0015,-1.0016,-1.0016]}]]